Regional Weather Roundup
Issued by NWS

Home | Current Version | Previous Version | Text Only | Print | Product List | Glossary On
Versions: 1 2 3 4 5 6 7 8 9 10 11 12 13 14 15 16 17 18 19 20 21 22 23 24 25 26 27 28 29 30 31 32 33 34 35 36 37 38 39 40 41 42 43 44 45 46 47 48 49 50
000
ASUS45 KBOI 100010
RWRID
WEATHER ROUNDUP FOR IDAHO
NATIONAL WEATHER SERVICE BOISE ID
600 PM MDT WED JUL 09 2014

NOTE: "FAIR" INDICATES FEW OR NO CLOUDS BELOW 12000 FEET
WITH NO SIGNIFICANT WEATHER AND/OR OBSTRUCTIONS TO VISIBILITY

IDZ012-014-100100-
SOUTHWEST IDAHO


CITY           SKY/WX    TMP DP  RH WIND       PRES   REMARKS
BOISE          CLOUDY    87  48  25 N15G24    29.92F
CALDWELL       CLOUDY    88  54  31 N9        29.93F
MOUNTAIN HOME  MOSUNNY   90  48  23 NW29      29.89S
$$

IDZ016-017-100100-
SOUTHCENTRAL IDAHO


CITY           SKY/WX    TMP DP  RH WIND       PRES   REMARKS
BURLEY         MOSUNNY   86  46  24 W10       29.89F
JEROME         MOSUNNY   94  48  20 W15       29.90F HX  90
TWIN FALLS     MOSUNNY   92  43  18 W22       29.92F
$$

IDZ019>023-100100-
SOUTHEAST IDAHO


CITY           SKY/WX    TMP DP  RH WIND       PRES   REMARKS
IDAHO FALLS    MOSUNNY   92  48  22 S8        29.93F
POCATELLO      SUNNY     93  44  18 SW10      29.91F
REXBURG        MOSUNNY   89  44  20 S8        29.94F
$$

IDZ006-010-011-018-031-032-100100-
CENTRAL IDAHO MOUNTAINS


CITY           SKY/WX    TMP DP  RH WIND       PRES   REMARKS
MCCALL         CLOUDY    67  54  63 S7        30.09F
HAILEY         PTSUNNY   88  43  20 SW10      29.98F
STANLEY          N/A     73  45  36 NW18G25   30.18R
SALMON         CLOUDY    79  48  34 N7        29.99R
CHALLIS        CLOUDY    81  44  27 N12G21    30.02R
$$

IDZ002-004-006-007-026-100100-
NORTHERN IDAHO


CITY           SKY/WX    TMP DP  RH WIND       PRES   REMARKS
LEWISTON       MOSUNNY   99  44  15 NW12      29.76F HX  95
LOWELL           N/A     83  67  58 CALM      29.79F
COEUR D`ALENE  MOSUNNY   88  54  31 SW3       29.80F
MULLAN PASS    PTSUNNY   70  49  47 W10G17    30.08F
$$


USA.gov is the U.S. government's official web portal to all federal, state and local government web resources and services.